カタログに戻る

COSMOS 917 DEB

LostHEO
NORAD 48089·DEBRIS·🇷🇺 Russia

打ち上げ Jun 16, 1977 から Plesetsk Cosmodrome

Loading…

次のパス (今後24時間)

TLE

古いSource: Space-Track

元期: Jul 12, 2022, 07:53 UTC

1 48089U 77047T   22193.32850047  .00000050  00000-0  00000+0 0  9994
2 48089  71.5232 137.2791 6092299 181.1100 176.5681  2.00513379496687

AllMySatでCOSMOS 917 DEBをリアルタイム追跡

Download on the App Store